Weather in Belousovka

Ukraine / Cherkassi District     49°56′28″N   32°21′26″E
В апреле 2022 года жителям России запретили посещать сайт meteo.paraplan.net по решению Генеральной прокуратуры. Аудитория сайта уменьшилась в 10 раз. Владельцы сайта не видят смысла в поддержке погодного сервера в таких условиях. Сайт будет закрыт в октябре.
temp.,
°C
wind,
m/s
gust,
m/s
humid.,
%
clouds,
%
prec.,
mm/h
press.,
hPa
HPBL,
m
25 september, sun
sun2500:00+8w61285100 0.0 1014397
03:00+8w61387100 0.0 1015358
06:00+7w6148785 0.0 1015372
09:00+10w612715 0.0 1016562
12:00+14wnw811485 0.0 10161605
15:00+16w7104496 0.0 10152135
18:00+13wsw3660100 0.0 1015210
21:00+10wsw357028 0.0 101571
26 september, mon
mon2600:00+9w338126 0.0 101531
03:00+9sw338114 0.0 101542
06:00+10ssw2472100 0.0 101478
09:00+11s2369100 0.0 1014103
12:00+15ssw3555100 0.0 1014526
15:00+17sse3351100 0.0 1013638
18:00+15ene4763100 0.0 1011159
21:00+12e3584100 0.5 1011128
27 september, tue
tue2700:00+12ese3691100 0.6 1010141
03:00+12se1190100 0.6 100918
06:00+13ese3490100 0.0 100894
09:00+14sse3893100 0.1 1007298
12:00+14sse4692100 0.6 1007397
15:00+14e51094100 2.9 1005435
18:00+14e71391100 0.1 1003432
21:00+15ese71587100 0.3 1001389
28 september, wed
wed2800:00+14ese41086100 0.1 1000230
03:00+14sse4990100 0.4 999254
06:00+13wsw2598100 0.4 998142
09:00+14w4690100 0.4 999346
12:00+16wnw567324 0.0 1000738
15:00+16wnw56688 0.0 1001769
18:00+15wnw227499 0.0 100342
21:00+13wsw22785 0.0 100525
29 september, thu
thu2900:00+14wsw2373100 0.0 100660
03:00+13nw247599 0.0 1008112
06:00+11nw229319 0.0 100931
09:00+13nw1180100 0.0 1011171
12:00+17sw1165100 0.0 1012691
15:00+18sw1253100 0.0 10121026
18:00+16ese11625 0.0 101311
21:00+13ese34755 0.0 101451